Regional Weather Roundup
Issued by NWS Nashville, TN

Home | Current Version | Previous Version | Text Only | Print | Product List | Glossary On
Versions: 1 2 3 4 5 6 7 8 9 10 11 12 13 14 15 16 17 18 19 20 21 22 23 24 25 26 27 28 29 30 31 32 33 34 35 36 37 38 39 40 41 42 43 44 45 46 47 48 49 50
000
ASUS44 KOHX 210505
RWROHX
MIDDLE TENNESSEE HOURLY WEATHER ROUNDUP
NATIONAL WEATHER SERVICE NASHVILLE TN
1200 AM CDT MON APR 21 2014

NOTE: "FAIR" INDICATES FEW OR NO CLOUDS BELOW 12,000 FEET WITH
NO SIGNIFICANT WEATHER AND/OR OBSTRUCTIONS TO VISIBILITY.

* THESE REPORTS ARE NOT UNDER NWS QUALITY CONTROL AND MAY NOT
  REPORT WEATHER SUCH AS PRECIPITATION AND FOG.


TNZ005>011-023>034-057-059-062>066-078-080-210600
...NORTHERN MIDDLE TENNESSEE...

CITY           SKY/WX    TMP DP  RH WIND       PRES   REMARKS
CLARKSVILLE    CLEAR     55  45  68 CALM      30.10F
COLUMBIA       CLEAR     54  52  94 CALM      30.11S
CROSSVILLE     MOCLDY    55  39  54 CALM      30.17F
GALLATIN         N/A     53  46  77 CALM      30.13S
DICKSON        CLEAR     59  41  51 CALM      30.11F
LIVINGSTON     MOCLDY    57  42  57 CALM      30.14F
NASHVILLE      PTCLDY    56  49  77 S3        30.12S
PORTLAND       CLEAR     52  46  82 S5        30.11F
SMYRNA         CLEAR     51  48  89 CALM      30.13S
SPARTA         CLEAR     48  45  87 CALM      30.13F
$$
TNZ056-058-060-061-075>077-079-093>097-210600
...SOUTHERN MIDDLE TENNESSEE...

CITY           SKY/WX    TMP DP  RH WIND       PRES   REMARKS
FAYETTEVILLE   CLEAR     57  45  64 CALM      30.14F
LEWISBURG      CLEAR     49  45  86 CALM      30.12F
MCMINNVILLE      N/A     52  48  86 W3        30.15S
MURFREESBORO   CLEAR     57  47  69 CALM      30.12S
SHELBYVILLE    CLEAR     54  48  82 E3        30.14S
TULLAHOMA      CLEAR     52  45  76 CALM      30.15F
WINCHESTER     CLEAR     52  46  82 CALM      30.15S
$$


...KEY TO REMARKS...
VSB - VISIBILITY IN MILES
WCI - WIND CHILL INDEX
HX  - HEAT INDEX




USA.gov is the U.S. government's official web portal to all federal, state and local government web resources and services.